{"data":{"norad_id":60992,"epoch":"2026-09-21T20:16:50.405376Z","epoch_age_seconds":72195,"freshness":"FRESH","line1":"1 60992U 24158C   26264.84502784  .00001855  00000+0  20159-4 0  9993","line2":"2 60992  53.1591  34.2497 0001280  82.0535 278.0628 15.69723293118409","mean_motion":15.69723293,"eccentricity":0.000128,"inclination_deg":53.1591,"raan_deg":34.2497,"arg_perigee_deg":82.0535,"mean_anomaly_deg":278.0628,"bstar":2.0159e-5,"rev_number":11840,"period_min":91.735913356291,"perigee_km":358.82626951948,"apogee_km":360.55115290155,"semimajor_km":6737.8257112105,"source":"CELESTRAK","updated_at":"2026-09-22T09:00:49.294210Z"}}